| time (UTC) | temp C | wind direction | speed KPH | gust KPH | rain 1hr cm | rain 24hr cm | rain mn cm | humidity % | barometer mb |
| 20260505101541 | 8 | 55 | 0.0 | 1.6 | 0.00 | 0.00 | 0.00 | 91 | 1013.1 |
| 20260505100033 | 9 | 55 | 0.0 | 3.2 | 0.00 | 0.00 | 0.00 | 91 | 1013.0 |
| 20260505094531 | 9 | 55 | 0.0 | 0.0 | 0.00 | 0.00 | 0.00 | 90 | 1012.9 |
| 20260505093029 | 10 | 57 | 0.0 | 1.6 | 0.00 | 0.00 | 0.00 | 89 | 1012.9 |
| 20260505091527 | 10 | 65 | 0.0 | 1.6 | 0.00 | 0.00 | 0.00 | 90 | 1012.7 |
| 20260505090024 | 10 | 65 | 0.0 | 0.0 | 0.00 | 0.00 | 0.00 | 90 | 1012.6 |
| 20260505084533 | 10 | 90 | 0.0 | 3.2 | 0.00 | 0.00 | 0.00 | 88 | 1012.5 |
| 20260505083020 | 11 | 90 | 0.0 | 1.6 | 0.00 | 0.00 | 0.00 | 89 | 1012.5 |
| 20260505081518 | 11 | 78 | 0.0 | 0.0 | 0.00 | 0.00 | 0.00 | 89 | 1012.4 |
| 20260505080015 | 11 | 78 | 0.0 | 4.8 | 0.00 | 0.00 | 0.00 | 89 | 1012.2 |
| 20260505074513 | 11 | 44 | 1.6 | 3.2 | 0.00 | 0.00 | 0.00 | 89 | 1012.1 |
| 20260505073012 | 11 | 44 | 1.6 | 4.8 | 0.00 | 0.00 | 0.00 | 88 | 1011.9 |
| 20260505071508 | 11 | 44 | 0.0 | 4.8 | 0.00 | 0.00 | 0.00 | 88 | 1011.8 |
| 20260505070007 | 11 | 339 | 0.0 | 3.2 | 0.00 | 0.00 | 0.00 | 88 | 1011.5 |
| 20260505064507 | 11 | 339 | 1.6 | 6.4 | 0.00 | 0.00 | 0.00 | 88 | 1011.4 |
| 20260505063009 | 11 | 304 | 3.2 | 4.8 | 0.00 | 0.00 | 0.00 | 87 | 1011.2 |
| 20260505061506 | 12 | 287 | 1.6 | 6.4 | 0.00 | 0.00 | 0.00 | 86 | 1011.1 |
| 20260505060005 | 12 | 319 | 4.8 | 6.4 | 0.00 | 0.00 | 0.00 | 85 | 1010.9 |
| 20260505054505 | 12 | 300 | 3.2 | 6.4 | 0.00 | 0.00 | 0.00 | 82 | 1011.0 |
| 20260505053004 | 12 | 297 | 4.8 | 8.0 | 0.00 | 0.00 | 0.00 | 81 | 1011.1 |
| 20260505051503 | 13 | 298 | 6.4 | 11.3 | 0.00 | 0.00 | 0.00 | 81 | 1010.9 |
| 20260505041502 | 15 | 261 | 3.2 | 12.9 | 0.00 | 0.00 | 0.00 | 81 | 1010.4 |
| 20260505040005 | 15 | 290 | 8.0 | 12.9 | 0.00 | 0.00 | 0.00 | 81 | 1010.1 |
| 20260505034501 | 15 | 289 | 9.7 | 12.9 | 0.00 | 0.00 | 0.00 | 79 | 1009.9 |
| 20260505033001 | 16 | 265 | 8.0 | 12.9 | 0.00 | 0.00 | 0.00 | 78 | 1009.7 |
| 20260505031608 | 17 | 309 | 3.2 | 6.4 | 0.00 | 0.00 | 0.00 | 75 | 1009.5 |
| 20260505030110 | 18 | 344 | 0.0 | 4.8 | 0.00 | 0.00 | 0.00 | 73 | 1009.3 |
| 20260505024606 | 18 | 313 | 1.6 | 8.0 | 0.00 | 0.00 | 0.00 | 72 | 1009.2 |
| 20260505023059 | 19 | 224 | 6.4 | 11.3 | 0.00 | 0.00 | 0.00 | 70 | 1009.0 |
| 20260505021600 | 20 | 162 | 3.2 | 9.7 | 0.00 | 0.00 | 0.00 | 71 | 1009.0 |
| 20260505020058 | 20 | 225 | 4.8 | 12.9 | 0.00 | 0.00 | 0.00 | 70 | 1009.0 |
| 20260505014609 | 20 | 208 | 3.2 | 14.5 | 0.00 | 0.00 | 0.00 | 70 | 1009.1 |
| 20260505013057 | 20 | 153 | 4.8 | 11.3 | 0.00 | 0.00 | 0.00 | 69 | 1009.1 |
| 20260505011606 | 20 | 213 | 6.4 | 16.1 | 0.00 | 0.00 | 0.00 | 70 | 1009.3 |
| 20260505010057 | 20 | 188 | 8.0 | 16.1 | 0.00 | 0.00 | 0.00 | 70 | 1009.3 |
| 20260505004556 | 20 | 244 | 4.8 | 14.5 | 0.00 | 0.00 | 0.00 | 70 | 1009.2 |
| 20260505003056 | 21 | 206 | 6.4 | 17.7 | 0.00 | 0.00 | 0.00 | 73 | 1009.2 |
| 20260505001557 | 21 | 223 | 6.4 | 19.3 | 0.00 | 0.00 | 0.00 | 72 | 1009.2 |
| 20260505000112 | 21 | 182 | 6.4 | 20.9 | 0.00 | 0.00 | 0.00 | 72 | 1009.5 |
| 20260504234555 | 21 | 211 | 4.8 | 19.3 | 0.00 | 0.00 | 0.00 | 72 | 1009.6 |
| 20260504233108 | 20 | 200 | 8.0 | 19.3 | 0.00 | 0.00 | 0.00 | 72 | 1009.7 |
| 20260504231553 | 21 | 254 | 9.7 | 17.7 | 0.00 | 0.00 | 0.00 | 73 | 1009.7 |
| 20260504230054 | 21 | 239 | 9.7 | 17.7 | 0.00 | 0.00 | 0.00 | 72 | 1009.9 |
| 20260504224558 | 20 | 229 | 6.4 | 17.7 | 0.00 | 0.00 | 0.00 | 71 | 1010.1 |
| 20260504223117 | 20 | 248 | 6.4 | 14.5 | 0.00 | 0.00 | 0.00 | 73 | 1010.2 |
| 20260504221550 | 20 | 238 | 8.0 | 17.7 | 0.00 | 0.00 | 0.00 | 73 | 1010.3 |
| 20260504220050 | 20 | 263 | 8.0 | 14.5 | 0.00 | 0.00 | 0.00 | 74 | 1010.4 |
| 20260504214551 | 20 | 244 | 8.0 | 14.5 | 0.00 | 0.00 | 0.00 | 73 | 1010.6 |
| 20260504213059 | 19 | 248 | 6.4 | 12.9 | 0.00 | 0.00 | 0.00 | 70 | 1010.6 |
| 20260504211546 | 19 | 245 | 1.6 | 12.9 | 0.00 | 0.00 | 0.00 | 76 | 1010.7 |
| 20260504210047 | 19 | 196 | 3.2 | 11.3 | 0.00 | 0.00 | 0.00 | 76 | 1011.0 |
| 20260504204549 | 18 | 278 | 4.8 | 11.3 | 0.00 | 0.00 | 0.00 | 73 | 1011.2 |
| 20260504203059 | 18 | 167 | 4.8 | 11.3 | 0.00 | 0.00 | 0.00 | 75 | 1011.2 |
| 20260504201543 | 17 | 194 | 4.8 | 12.9 | 0.00 | 0.00 | 0.00 | 78 | 1011.3 |
| 20260504200044 | 17 | 120 | 3.2 | 8.0 | 0.00 | 0.00 | 0.00 | 78 | 1011.4 |
| 20260504194541 | 17 | 329 | 6.4 | 9.7 | 0.00 | 0.00 | 0.00 | 78 | 1011.4 |
| 20260504193041 | 16 | 233 | 3.2 | 11.3 | 0.00 | 0.00 | 0.00 | 78 | 1011.5 |
| 20260504191539 | 16 | 237 | 4.8 | 11.3 | 0.00 | 0.00 | 0.00 | 80 | 1011.5 |
| 20260504190044 | 15 | 224 | 1.6 | 11.3 | 0.00 | 0.00 | 0.00 | 78 | 1011.7 |
| 20260504184536 | 15 | 345 | 0.0 | 11.3 | 0.00 | 0.00 | 0.00 | 83 | 1011.7 |
| 20260504183034 | 14 | 198 | 1.6 | 11.3 | 0.00 | 0.00 | 0.00 | 83 | 1011.7 |
| 20260504181539 | 13 | 188 | 3.2 | 11.3 | 0.00 | 0.00 | 0.00 | 84 | 1011.5 |
| 20260504180031 | 13 | 109 | 3.2 | 9.7 | 0.00 | 0.00 | 0.00 | 84 | 1011.7 |
| 20260504174529 | 13 | 150 | 3.2 | 9.7 | 0.00 | 0.00 | 0.00 | 87 | 1011.7 |
| 20260504173028 | 13 | 197 | 6.4 | 11.3 | 0.00 | 0.00 | 0.00 | 86 | 1011.6 |
| 20260504171526 | 12 | 161 | 4.8 | 11.3 | 0.00 | 0.00 | 0.00 | 87 | 1011.4 |